Regional Weather Roundup
Issued by NWS

Home | Current Version | Previous Version | Text Only | Print | Product List | Glossary On
Versions: 1 2 3 4 5 6 7 8 9 10 11 12 13 14 15 16 17 18 19 20 21 22 23 24 25 26 27 28 29 30 31 32 33 34 35 36 37 38 39 40 41 42 43 44 45 46 47 48 49 50
000
ASCA44 KEWX 230620
RWRMX

LATIN AMERICA AND CARIBBEAN REGIONAL WEATHER ROUNDUP
NATIONAL WEATHER SERVICE AUSTIN/SAN ANTONIO TX
100 AM CDT SUN JUL 23 2017

NOTE: "FAIR" INDICATED FEW OR NO CLOUDS BELOW 12,000 FEET WITH NO
SIGNIFICANT WEATHER AND/OR OBSTRUCTIONS TO VISIBILITY.

BAJA CALIFORNIA

CITY           SKY/WX    TMP DP  RH WIND       PRES   REMARKS
LA PAZ           N/A    N/A N/A N/A MISG        N/A
MEXICALI       CLEAR     88  68  51 SE10      29.75R HX  91
S.J. DEL CABO    N/A    N/A N/A N/A MISG        N/A
TIJUANA        CLEAR     66  59  77 CALM      29.94S

NORTHWESTERN MEXICO

CITY           SKY/WX    TMP DP  RH WIND       PRES   REMARKS
HERMOSILLO     CLOUDY    88  75  66 E6        29.88F HX  97

NORTHEASTERN MEXICO

CITY           SKY/WX    TMP DP  RH WIND       PRES   REMARKS
MONCLOVA         N/A    N/A N/A N/A MISG        N/A
MONTERREY      CLEAR     82  57  42 E6        29.90S
REYNOSA          N/A    N/A N/A N/A MISG        N/A
CD. VICTORIA     N/A    N/A N/A N/A MISG        N/A

WESTERN MEXICO

CITY           SKY/WX    TMP DP  RH WIND       PRES   REMARKS
AGUASCALIENTES CLEAR     63  55  77 S5        30.30R
COLIMA           N/A    N/A N/A N/A MISG        N/A
DEL BAJIO      MOCLDY    63  59  88 CALM      30.32S
GUADALAJARA    CLOUDY    66  59  77 W6        30.22F
MAZATLAN       MOCLDY    81  79  94 CALM      29.90R
P. VALLARTA    CLOUDY    81  81 100 SE5       29.91S HX  91
URUAPAN          N/A    N/A N/A N/A MISG        N/A
ZACATECAS        N/A    N/A N/A N/A MISG        N/A

CENTRAL MEXICO

CITY           SKY/WX    TMP DP  RH WIND       PRES   REMARKS
CUERNAVACA       N/A    N/A N/A N/A MISG        N/A
MEXICO CITY    MOCLDY    61  55  82 CALM      30.36F
MORELIA        MOCLDY    59  59 100 CALM      30.26S
POZA RICA        N/A    N/A N/A N/A MISG        N/A
QUERETARO      PTCLDY    61  55  82 CALM      30.32S
S. LUIS POTOSI CLEAR     61  52  72 E8        30.28S
TOLUCA         MOCLDY    50  48  93 CALM      30.42S

SOUTHERN MEXICO

CITY           SKY/WX    TMP DP  RH WIND       PRES   REMARKS
ACAPULCO       PTCLDY    82  77  83 N5        29.93F HX  91
B. DE HUATULCO   N/A    N/A N/A N/A MISG        N/A
P. ESCONDIDO     N/A    N/A N/A N/A MISG        N/A
VERACRUZ       MOCLDY    81  77  89 S2        29.96F

YUCATAN PENINSULA

CITY           SKY/WX    TMP DP  RH WIND       PRES   REMARKS
CAMPECHE         N/A    N/A N/A N/A MISG        N/A
CANCUN         MOCLDY    82  79  89 E6        30.02F HX  93
CHETUMAL         N/A    N/A N/A N/A MISG        N/A
CD. DEL CARMEN   N/A    N/A N/A N/A MISG        N/A
COZUMEL        PTCLDY    81  77  89 E5        29.99F
MERIDA         PTCLDY    81  72  74 E7        30.02F
MINATITLAN       N/A    N/A N/A N/A MISG        N/A
TAPACHULA      CLOUDY    77  75  94 CALM      29.92F
TUX. GUTIERREZ CLEAR     72  66  83 SW5       30.00S

CENTRAL AMERICA

CITY           SKY/WX    TMP DP  RH WIND       PRES   REMARKS
MANAGUA        PTCLDY    77  72  83 SE7       29.92S

CARIBBEAN

CITY           SKY/WX    TMP DP  RH WIND       PRES   REMARKS
ARUBA          PTCLDY    82  77  83 E21       29.89S HX  91
CURACAO        PTCLDY    81  77  89 E12       29.94
KINGSTON       PTCLDY    84  75  74 E9        29.94F HX  92
NASSAU         MOCLDY    82  73  74 CALM      30.09F
SAN JUAN       PTCLDY    82  77  83 VRB6      30.01F HX  91
SANTO DOMINGO  PTCLDY    77  75  94 CALM      30.00F
ST. CROIX      PTCLDY    82  79  89 E14       30.00F HX  93
ST. MAARTEN    PTCLDY    82  79  89 E9        30.00S HX  93
ST. THOMAS     PTCLDY    82  79  89 E8          N/A  HX  93

$$




USA.gov is the U.S. government's official web portal to all federal, state and local government web resources and services.